Skip Page Navigation
NASA JPL Caltech
NASA Logo - Jet Propulsion Laboratory + View the NASA Portal
+ Center for Near-Earth Object Studies
JPL Home Earth Solar System Stars & Galaxies Technology
JPL Solar System Dynamics
BODIES ORBITS EPHEMERIDES TOOLS PHYSICAL DATA DISCOVERY FAQ SITE MAP
JPL Small-Body Database Browser
Search: [ help ]  
160297 (2003 FV22)
Classification: Main-belt Asteroid          SPK-ID: 2160297
Ephemeris | Orbit Diagram | Orbital Elements | Mission Design | Physical Parameters | Discovery Circumstances | Close-Approach Data ]

[ show orbit diagram ]
Orbital Elements at Epoch 2459000.5 (2020-May-31.0) TDB
Reference: JPL 19 (heliocentric ecliptic J2000)
 Element Value Uncertainty (1-sigma)   Units 
e .152385257947498 4.9015e-08  
a 2.660605016568029 1.4451e-08 au
q 2.255168034821903 1.3281e-07 au
i 3.99614092354555 4.4913e-06 deg
node 93.31027147125359 7.2232e-05 deg
peri 63.32473917337101 7.3804e-05 deg
M 2.206263871034159 1.393e-05 deg
tp 2458990.785420924852
(2020-May-21.28542092)
6.1323e-05 TDB
period 1585.145146493268
4.34
1.2914e-05
3.536e-08
d
yr
n .2271085400579302 1.8503e-09 deg/d
Q 3.066041998314156 1.6653e-08 au
  Orbit Determination Parameters
   # obs. used (total)      422  
   data-arc span      6726 days (18.41 yr)  
   first obs. used      2001-11-20  
   last obs. used      2020-04-20  
   planetary ephem.      DE431  
   SB-pert. ephem.      SB431-N16  
   condition code      0  
   norm. resid. RMS      .62194  
   source      ORB  
   producer      Otto Matic  
   solution date      2020-May-21 01:32:01  

Additional Information
 Earth MOID = 1.26829 au 
 Jupiter MOID = 1.9285 au 
 T_jup = 3.366 
[ show covariance matrix ]

Ephemeris | Orbit Diagram | Orbital Elements | Mission Design | Physical Parameters | Discovery Circumstances | Close-Approach Data ]

Physical Parameter Table
Parameter Symbol Value Units Sigma Reference Notes
absolute magnitude H 16.4   n/a MPO417853  

160297 (2003 FV22)          Discovered 2003-Mar-22 by NEAT at Haleakala
Reference: 20070730/Numbers.arcLast Updated: 2007-08-06

[ hide close-approach data ]
Close-Approach Data   ...sorted by Date/Time (TDB)
Date/Time (TDB) Time Uncertainty
(days_HH:MM)
Body Nominal Distance (au) Minimum Distance (au) Maximum Distance (au) V-relative (km/s) V-infinity (km/s) JD (TDB) Time Uncertainty (minutes) Semi-major axis (km) Semi-minor axis (km) range-LOV angle (deg) N-sigma BP Orbit Ref. Reference Modified
1926-Dec-24 15:13 00:02 Jupiter 1.94822795191859 1.94822743362583 1.94822847021223 2.13506903277337 1.92067398399204 2424874.133918616 2.0265305792298 129.864017971718 12.1734232976216 -89.7634930033208 2308752.43511718 T 19 CATAB v2.0f-lin.ifort 2020-May-21 01:32:03 2020-May-21 01:32
1975-Jan-16 11:20 < 00:01 Jupiter 1.93559562758315 1.93559519931883 1.93559605584725 2.15278240971042 1.93888267801091 2442428.972334028 0.935373282090152 76.2347147377557 9.30293014089666 87.7787013813262 2149271.59043234 T 19 CATAB v2.0f-lin.ifort 2020-May-21 01:32:03 2020-May-21 01:32
2057-Mar-09 00:52 < 00:01 Jupiter 1.99125665028357 1.99125614841426 1.99125715215287 2.27964256924154 2.08471306458893 2472431.536076310 0.997456830505966 66.5570834821301 10.2851496696794 -87.5806243534143 2426099.59057114 T 19 CATAB v2.0f-lin.ifort 2020-May-21 01:32:03 2020-May-21 01:32
2105-Apr-01 01:01 00:02 Jupiter 1.93208023706761 1.93207981820002 1.93208065593541 2.09455681820279 1.87359808286884 2489985.542650310 2.091571063414 144.339409227218 13.5986874436999 -88.0208484443012 2224698.04307952 T 19 CATAB v2.0f-lin.ifort 2020-May-21 01:32:03 2020-May-21 01:32
2153-Apr-24 08:53 00:03 Jupiter 1.95392159952868 1.9539207699112 1.95392242915006 2.27241760271624 2.07289274146555 2507540.870448628 3.20043366180565 191.386507803068 7.08155081584874 -89.0383437581642 1942296.65434961 T 19 CATAB v2.0f-lin.ifort 2020-May-21 01:32:03 2020-May-21 01:32
Ephemeris | Orbit Diagram | Orbital Elements | Mission Design | Physical Parameters | Discovery Circumstances | Close-Approach Data ]
ABOUT SSD CREDITS/AWARDS PRIVACY/COPYRIGHT GLOSSARY LINKS
FirstGov 2020-Aug-12 18:51 UT
(server date/time)  
NASA Home Page
Site Manager:   Ryan S. Park
Webmaster  Alan B. Chamberlin